Location: ???????
(55.7027°N, 37.3832°E)
Time: 20:54:33
(UTC+00:00)

Cosmos 2327 Rocket - Pass Details

Date: 14 April 2026
Orbit: 944 x 1006 km, 83.0° (Epoch: 16 May)

Event Time Altitude Azimuth Distance (km) Brightness Sun altitude
Rises 17:28:28 0° 180° (S) 3,634 7.2 -7.8°
Reaches altitude 10° 17:30:57 10° 178° (S) 2,700 6.5 -8.1°
Maximum altitude 17:37:05 70° 96° (E) 1,038 4.5 -8.8°
Drops below altitude 10° 17:43:23 10° 14° (NNE) 2,761 7.1 -9.6°
Sets 17:45:56 0° 13° (NNE) 3,722 7.8 -9.9°
